Regional Weather Roundup
Issued by NWS Little Rock, AR

Home | Current Version | Previous Version | Text Only | Print | Product List | Glossary On
Versions: 1 2 3 4 5 6 7 8 9 10 11 12 13 14 15 16 17 18 19 20 21 22 23 24 25 26 27 28 29 30 31 32 33 34 35 36 37 38 39 40 41 42 43 44 45 46 47 48 49 50
000
ASUS44 KLZK 281205
RWRLZK

WEATHER ROUNDUP FOR ARKANSAS
NATIONAL WEATHER SERVICE LITTLE ROCK AR
700 AM CDT SAT MAR 28 2015

NOTE: "FAIR" INDICATES FEW OR NO CLOUDS BELOW 12,000 FEET WITH NO
SIGNIFICANT WEATHER AND/OR OBSTRUCTIONS TO VISIBILITY.

ARZ001-003-010-029-281300-
NORTHWEST ARKANSAS

CITY           SKY/WX    TMP DP  RH WIND       PRES   REMARKS
FAYETTEVILLE   LGT RAIN  42  32  67 E3        30.11R
6HR MIN TEMP:  38; 6HR MAX TEMP:  43; 6HR PCP: TRACE;

FORT SMITH     CLOUDY    45  34  65 E5        30.11R
6HR MIN TEMP:  45; 6HR MAX TEMP:  48; 6HR PCP: TRACE;

HARRISON       CLOUDY    38  29  70 E7        30.13R
6HR MIN TEMP:  38; 6HR MAX TEMP:  41;

BENTONVILLE    CLOUDY    41  28  60 SE7       30.09S
6HR MIN TEMP:  39; 6HR MAX TEMP:  43;

ROGERS         LGT RAIN  40  30  67 SE8       30.10S
6HR MIN TEMP:  39; 6HR MAX TEMP:  43; 6HR PCP: TRACE;

SILOAM SPGS    CLOUDY    39  30  70 SE6       30.11R
6HR MIN TEMP:  39; 6HR MAX TEMP:  43;

HIGHFILL       LGT RAIN  42  33  70 S8        30.08S
6HR MIN TEMP:  40; 6HR MAX TEMP:  43; 6HR PCP: TRACE;

SPRINGDALE     CLOUDY    41  30  65 SE6       30.12R
$$

ARZ004-005-016-281300-
NORTH CENTRAL ARKANSAS

CITY           SKY/WX    TMP DP  RH WIND       PRES   REMARKS
BATESVILLE     CLOUDY    39  28  65 E7        30.21R
6HR MIN TEMP:  37; 6HR MAX TEMP:  41;

FLIPPIN        CLOUDY    37  27  65 E6        30.18R
6HR MIN TEMP:  37; 6HR MAX TEMP:  43;

MTN HOME       CLOUDY    37  29  72 E7        30.18R
6HR MIN TEMP:  37; 6HR MAX TEMP:  41;

$$

ARZ040-041-281300-
WEST CENTRAL ARKANSAS

CITY           SKY/WX    TMP DP  RH WIND       PRES   REMARKS
MENA           CLOUDY    43  37  81 CALM      30.12F
MOUNT IDA      CLOUDY    41  36  82 CALM      30.12S
6HR MIN TEMP:  37; 6HR MAX TEMP:  42;

$$

ARZ009-017-025-026-028-281300-
NORTHEAST ARKANSAS

CITY           SKY/WX    TMP DP  RH WIND       PRES   REMARKS
CORNING          N/A     37  28  70 CALM      30.25R
JONESBORO      CLOUDY    37  30  75 S5        30.25R
6HR MIN TEMP:  33; 6HR MAX TEMP:  37;

NEWPORT        CLOUDY    39  30  70 SE6       30.26R
6HR MIN TEMP:  38; 6HR MAX TEMP:  40;

BLYTHEVILLE    CLOUDY    36  27  69 CALM      30.25R
6HR MIN TEMP:  33; 6HR MAX TEMP:  37;

$$

ARZ022-023-033-042-044-281300-
CENTRAL ARKANSAS

CITY           SKY/WX    TMP DP  RH WIND       PRES   REMARKS
LITTLE ROCK    CLOUDY    43  35  73 E5        30.21R
6HR MIN TEMP:  42; 6HR MAX TEMP:  46;

N LITTLE ROCK    N/A     42  37  84 E5        30.21R
6HR MIN TEMP:  42; 6HR MAX TEMP:  45;

JACKSONVILLE   CLOUDY    41  35  78 E6        30.20R
6HR MIN TEMP:  41; 6HR MAX TEMP:  44;

SEARCY         CLOUDY    40  33  76 E3        30.24R
6HR MIN TEMP:  39; 6HR MAX TEMP:  43;

HOT SPRINGS    CLOUDY    42  33  70 E5        30.17S
6HR MIN TEMP:  39; 6HR MAX TEMP:  45;

RUSSELLVILLE   CLOUDY    43  35  73 SE5       30.16R
6HR MIN TEMP:  42; 6HR MAX TEMP:  45;

CLINTON        CLOUDY    39  32  75 E3        30.21R
$$

ARZ036-281300-
EAST ARKANSAS

CITY           SKY/WX    TMP DP  RH WIND       PRES   REMARKS
WEST MEMPHIS   CLOUDY    37  25  61 SE6       30.23R
6HR MIN TEMP:  34; 6HR MAX TEMP:  39;

$$

ARZ050-053-066-070-073-281300-
SOUTHWEST ARKANSAS

CITY           SKY/WX    TMP DP  RH WIND       PRES   REMARKS
ARKADELPHIA    FAIR      42  39  89 CALM      30.20R
6HR MIN TEMP:  41; 6HR MAX TEMP:  45;

CAMDEN         PTCLDY    37  36  93 CALM      30.20R
TEXARKANA      CLEAR     45  39  79 S8        30.14R
6HR MIN TEMP:  41; 6HR MAX TEMP:  46;

EL DORADO      PTCLDY    39  37  92 S3        30.17F
6HR MIN TEMP:  37; 6HR MAX TEMP:  41;

DE QUEEN       PTCLDY    39  34  82 NE5       30.14R
6HR MIN TEMP:  37; 6HR MAX TEMP:  40;

$$

ARZ056-057-069-281300-
SOUTHEAST ARKANSAS

CITY           SKY/WX    TMP DP  RH WIND       PRES   REMARKS
PINE BLUFF     CLOUDY    40  38  93 E7        30.20R
6HR MIN TEMP:  40; 6HR MAX TEMP:  44;

STUTTGART      CLOUDY    41  30  65 SE9       30.21R
6HR MIN TEMP:  41; 6HR MAX TEMP:  45;

MONTICELLO     CLOUDY    40  36  86 CALM      30.19R
6HR MIN TEMP:  36; 6HR MAX TEMP:  44;


$$




USA.gov is the U.S. government's official web portal to all federal, state and local government web resources and services.